When you browse on this site, cookies collect data to enhance your experience and personalize the content and advertising you see.
Visit our Privacy Policy to learn more. By continuing to use the site, you agree to this use of cookies and data.

Previsão horária em Coleraine

Hoje, 5 Agosto, Quarta-feira

Tempo Temperatura Precipitação Vento Pressão Humidade
00:00 +14°C° 0 mm 4 m/s 747 mmHg 93%
01:00 +14°C° 0 mm 4 m/s 748 mmHg 94%
02:00 +14°C° 0 mm 4 m/s 748 mmHg 95%
03:00 +13°C° 0 mm 4 m/s 748 mmHg 95%
04:00 +13°C° 0 mm 3 m/s 748 mmHg 95%
05:00 +13°C° 0 mm 3 m/s 748 mmHg 96%
06:00 +13°C° 0 mm 3 m/s 748 mmHg 96%
07:00 +14°C° 0 mm 3 m/s 748 mmHg 94%
08:00 +16°C° 0 mm 3 m/s 749 mmHg 92%
09:00 +17°C° 0 mm 3 m/s 749 mmHg 91%
10:00 +16°C° 0.9 mm 2 m/s 749 mmHg 92%
11:00 +16°C° 0.9 mm 2 m/s 749 mmHg 94%
12:00 +16°C° 0.9 mm 1 m/s 749 mmHg 95%
13:00 +16°C° 0.6 mm 2 m/s 749 mmHg 95%
14:00 +16°C° 0.6 mm 2 m/s 750 mmHg 95%
15:00 +16°C° 0.6 mm 2 m/s 750 mmHg 94%
16:00 +17°C° 0.1 mm 3 m/s 751 mmHg 93%
17:00 +17°C° 0.1 mm 3 m/s 751 mmHg 92%
18:00 +17°C° 0.1 mm 3 m/s 752 mmHg 91%
19:00 +16°C° 0 mm 3 m/s 753 mmHg 92%
20:00 +16°C° 0 mm 3 m/s 753 mmHg 92%
21:00 +15°C° 0 mm 2 m/s 754 mmHg 93%
22:00 +14°C° 0 mm 2 m/s 755 mmHg 93%
23:00 +14°C° 0 mm 2 m/s 755 mmHg 93%

Amanhã, 6 Agosto, Quinta-feira

Tempo Temperatura Precipitação Vento Pressão Humidade
00:00 +13°C° 0 mm 2 m/s 755 mmHg 93%
01:00 +13°C° 0 mm 2 m/s 756 mmHg 94%
02:00 +13°C° 0 mm 2 m/s 756 mmHg 94%
03:00 +11°C° 0 mm 3 m/s 756 mmHg 95%
04:00 +12°C° 0 mm 3 m/s 756 mmHg 95%
05:00 +12°C° 0 mm 3 m/s 756 mmHg 95%
06:00 +12°C° 0 mm 3 m/s 757 mmHg 95%
07:00 +13°C° 0 mm 3 m/s 757 mmHg 92%
08:00 +15°C° 0 mm 4 m/s 757 mmHg 89%
09:00 +17°C° 0 mm 4 m/s 757 mmHg 86%
10:00 +17°C° 0 mm 5 m/s 757 mmHg 84%
11:00 +19°C° 0 mm 5 m/s 757 mmHg 81%
12:00 +21°C° 0 mm 6 m/s 757 mmHg 78%
13:00 +21°C° 0 mm 6 m/s 757 mmHg 78%
14:00 +21°C° 0 mm 6 m/s 757 mmHg 78%
15:00 +21°C° 0 mm 7 m/s 757 mmHg 79%
16:00 +20°C° 0 mm 6 m/s 757 mmHg 82%
17:00 +20°C° 0 mm 6 m/s 756 mmHg 85%
18:00 +19°C° 0 mm 5 m/s 756 mmHg 87%
19:00 +17°C° 0 mm 5 m/s 757 mmHg 89%
20:00 +17°C° 0 mm 5 m/s 757 mmHg 91%
21:00 +17°C° 0 mm 4 m/s 757 mmHg 92%
22:00 +17°C° 0.1 mm 4 m/s 757 mmHg 93%
23:00 +17°C° 0.1 mm 4 m/s 757 mmHg 94%

Depois de amanhã, 7 Agosto, Sexta-feira

Tempo Temperatura Precipitação Vento Pressão Humidade
00:00 +17°C° 0.1 mm 4 m/s 757 mmHg 95%
01:00 +17°C° 0.1 mm 4 m/s 757 mmHg 95%
02:00 +15°C° 0.1 mm 4 m/s 757 mmHg 96%
03:00 +15°C° 0.1 mm 4 m/s 757 mmHg 96%
04:00 +15°C° 0 mm 4 m/s 757 mmHg 95%
05:00 +14°C° 0 mm 4 m/s 757 mmHg 95%
06:00 +14°C° 0 mm 4 m/s 757 mmHg 94%
07:00 +15°C° 0 mm 5 m/s 757 mmHg 92%
08:00 +16°C° 0 mm 5 m/s 757 mmHg 90%
09:00 +19°C° 0 mm 5 m/s 757 mmHg 88%
10:00 +19°C° 0.1 mm 6 m/s 757 mmHg 88%
11:00 +20°C° 0.1 mm 6 m/s 757 mmHg 87%
12:00 +20°C° 0.1 mm 6 m/s 757 mmHg 87%
13:00 +20°C° 0.9 mm 6 m/s 757 mmHg 89%
14:00 +20°C° 0.9 mm 6 m/s 757 mmHg 91%
15:00 +19°C° 0.9 mm 5 m/s 757 mmHg 93%
16:00 +19°C° 1.3 mm 5 m/s 757 mmHg 92%
17:00 +17°C° 1.3 mm 6 m/s 758 mmHg 91%
18:00 +16°C° 1.3 mm 6 m/s 758 mmHg 90%
19:00 +15°C° 0 mm 6 m/s 759 mmHg 90%
20:00 +13°C° 0 mm 6 m/s 760 mmHg 90%
21:00 +12°C° 0 mm 5 m/s 761 mmHg 90%
22:00 +10°C° 0 mm 5 m/s 761 mmHg 91%
23:00 +11°C° 0 mm 4 m/s 762 mmHg 92%

8 Agosto, Sábado

Tempo Temperatura Precipitação Vento Pressão Humidade
00:00 +10°C° 0 mm 3 m/s 763 mmHg 93%
01:00 +10°C° 0 mm 3 m/s 763 mmHg 93%
02:00 +10°C° 0 mm 3 m/s 763 mmHg 94%
03:00 +9°C° 0 mm 3 m/s 764 mmHg 94%
04:00 +10°C° 0 mm 3 m/s 764 mmHg 94%
05:00 +10°C° 0 mm 3 m/s 764 mmHg 94%
06:00 +10°C° 0 mm 2 m/s 765 mmHg 95%
07:00 +12°C° 0 mm 2 m/s 765 mmHg 90%
08:00 +14°C° 0 mm 2 m/s 766 mmHg 85%
09:00 +15°C° 0 mm 2 m/s 766 mmHg 80%
10:00 +16°C° 0 mm 2 m/s 766 mmHg 75%
11:00 +17°C° 0 mm 2 m/s 766 mmHg 70%
12:00 +19°C° 0 mm 1 m/s 767 mmHg 65%
13:00 +19°C° 0 mm 1 m/s 767 mmHg 66%
14:00 +18°C° 0 mm 2 m/s 767 mmHg 68%
15:00 +18°C° 0 mm 2 m/s 767 mmHg 69%
16:00 +17°C° 0 mm 2 m/s 767 mmHg 73%
17:00 +17°C° 0 mm 2 m/s 767 mmHg 76%
18:00 +16°C° 0 mm 2 m/s 767 mmHg 80%
19:00 +15°C° 0 mm 1 m/s 767 mmHg 83%
20:00 +14°C° 0 mm 1 m/s 768 mmHg 87%
21:00 +12°C° 0 mm 1 m/s 768 mmHg 90%
22:00 +12°C° 0 mm 1 m/s 768 mmHg 89%
23:00 +12°C° 0 mm 1 m/s 768 mmHg 88%

9 Agosto, Domingo

Tempo Temperatura Precipitação Vento Pressão Humidade
00:00 +11°C° 0 mm 1 m/s 768 mmHg 87%
01:00 +11°C° 0 mm 1 m/s 767 mmHg 87%
02:00 +11°C° 0 mm 1 m/s 767 mmHg 87%
03:00 +11°C° 0 mm 1 m/s 767 mmHg 86%
04:00 +11°C° 0 mm 1 m/s 767 mmHg 86%
05:00 +12°C° 0 mm 1 m/s 767 mmHg 85%
06:00 +12°C° 0 mm 1 m/s 767 mmHg 84%
07:00 +13°C° 0 mm 1 m/s 767 mmHg 80%
08:00 +15°C° 0 mm 1 m/s 767 mmHg 76%
09:00 +18°C° 0 mm 1 m/s 767 mmHg 71%
10:00 +18°C° 0 mm 1 m/s 766 mmHg 70%
11:00 +18°C° 0 mm 2 m/s 766 mmHg 68%
12:00 +18°C° 0 mm 2 m/s 766 mmHg 66%
13:00 +19°C° 0 mm 2 m/s 766 mmHg 66%
14:00 +19°C° 0 mm 2 m/s 765 mmHg 67%
15:00 +19°C° 0 mm 2 m/s 765 mmHg 67%
16:00 +19°C° 0 mm 2 m/s 765 mmHg 70%
17:00 +18°C° 0 mm 2 m/s 765 mmHg 73%
18:00 +18°C° 0 mm 2 m/s 765 mmHg 76%
19:00 +17°C° 0 mm 2 m/s 765 mmHg 80%
20:00 +15°C° 0 mm 2 m/s 765 mmHg 84%
21:00 +13°C° 0 mm 1 m/s 765 mmHg 87%
22:00 +13°C° 0 mm 2 m/s 765 mmHg 88%
23:00 +13°C° 0 mm 2 m/s 764 mmHg 89%

10 Agosto, Segunda-feira

Tempo Temperatura Precipitação Vento Pressão Humidade
00:00 +12°C° 0 mm 2 m/s 764 mmHg 89%
01:00 +12°C° 0 mm 2 m/s 764 mmHg 90%
02:00 +12°C° 0 mm 2 m/s 764 mmHg 91%
03:00 +12°C° 0 mm 2 m/s 763 mmHg 92%
04:00 +13°C° 0 mm 2 m/s 763 mmHg 92%
05:00 +13°C° 0 mm 2 m/s 763 mmHg 92%
06:00 +13°C° 0 mm 2 m/s 763 mmHg 91%
07:00 +12°C° 0.2 mm 3 m/s 763 mmHg 92%
08:00 +13°C° 0.2 mm 3 m/s 763 mmHg 92%
09:00 +13°C° 0.2 mm 3 m/s 763 mmHg 93%
10:00 +13°C° 0.2 mm 3 m/s 763 mmHg 93%
11:00 +13°C° 0.2 mm 3 m/s 763 mmHg 93%
12:00 +13°C° 0.2 mm 3 m/s 763 mmHg 93%
13:00 +13°C° 0.5 mm 3 m/s 762 mmHg 94%
14:00 +13°C° 0.5 mm 3 m/s 762 mmHg 94%
15:00 +14°C° 0.5 mm 2 m/s 762 mmHg 95%
16:00 +14°C° 0.7 mm 2 m/s 762 mmHg 95%
17:00 +14°C° 0.7 mm 2 m/s 762 mmHg 95%
18:00 +14°C° 0.7 mm 1 m/s 762 mmHg 96%
19:00 +14°C° 0.3 mm 1 m/s 762 mmHg 96%
20:00 +14°C° 0.3 mm 1 m/s 761 mmHg 96%
21:00 +14°C° 0.3 mm 1 m/s 761 mmHg 96%
22:00 +14°C° 0.1 mm 1 m/s 761 mmHg 96%
23:00 +14°C° 0.1 mm 1 m/s 761 mmHg 95%
Mostrar mais